Starlink 30989

operational
NORAD ID: 58510 Int'l Des: 2023-191 Owner: SPXS Country: US Constellation: starlink
LEOCIRCULAR

Starlink 30989について

説明を読み込み中...

リアルタイム位置

3D地球を読み込み中...

次回通過

高度履歴

Altitude vs Time

uPlot chart will show altitude changes over time

軌道要素

1 58510U 23191C 25351.30165462 -.00000349 00000-0 -10793-4 0 9990
2 58510 43.0037 194.0347 0001087 269.2786 90.7932 15.02535695113075
Epoch: Dec 17, 2025 • Age: 19 hours

現在のステータス

高度 561.3 km
速度 7.59 km/s
衛星直下点 35.57°N, 112.72°E
打ち上げ日 Dec 7, 2023
運用期間 2 years
タイプ internet

技術仕様

分類 Payload
質量 730.00 kg
乾燥質量 700.00 kg
総質量 730.00 kg
長さ 0.30 m
直径 4.10 m
スパン 29.00 m
形状 Box + pan
製造者 SPXS
バスタイプ Starlink V2M
フェーズステータス In Orbit
所有者/国 SPXS/US

大規模コンステレーション

Loading constellations...